Time,TemperatureF,DewpointF,PressureIn,WindDirection,WindDirectionDegrees,WindSpeedMPH,WindSpeedGustMPH,Humidity,HourlyPrecipIn,Conditions,Clouds,dailyrainin,SolarRadiationWatts/m^2,SoftwareType,DateUTC
2013-03-04 00:01:00,23.7,14.4,29.98,East,90,12.0,22.0,67,0.00,,,0.00,0.0,meteohub,2013-03-04 06:01:00,
2013-03-04 00:06:00,23.5,14.2,29.98,ENE,67,12.0,22.0,67,0.00,,,0.00,0.0,meteohub,2013-03-04 06:06:00,
2013-03-04 00:12:00,23.5,14.2,29.98,ENE,71,0.0,28.0,67,0.00,,,0.00,0.0,meteohub,2013-03-04 06:12:00,
2013-03-04 00:17:00,23.5,13.8,29.98,ESE,112,0.0,28.0,66,0.00,,,0.00,0.0,meteohub,2013-03-04 06:17:00,
2013-03-04 00:22:00,23.4,14.0,29.98,East,96,7.0,32.0,67,0.00,,,0.00,0.0,meteohub,2013-03-04 06:22:00,
2013-03-04 00:27:00,23.4,14.0,29.98,ENE,74,7.0,32.0,67,0.00,,,0.00,0.0,meteohub,2013-03-04 06:27:00,
2013-03-04 00:32:00,23.4,13.6,29.98,NE,54,10.0,32.0,66,0.00,,,0.00,0.0,meteohub,2013-03-04 06:32:00,
2013-03-04 00:37:00,23.2,13.5,29.98,East,80,17.0,28.0,66,0.00,,,0.00,0.0,meteohub,2013-03-04 06:37:00,
2013-03-04 00:42:00,23.2,13.8,29.98,ENE,78,27.0,28.0,67,0.00,,,0.00,0.0,meteohub,2013-03-04 06:42:00,
2013-03-04 00:47:00,23.2,13.8,29.98,East,88,5.0,28.0,67,0.00,,,0.00,0.0,meteohub,2013-03-04 06:47:00,
2013-03-04 00:52:00,23.2,13.8,29.98,SE,134,7.0,28.0,67,0.00,,,0.00,0.0,meteohub,2013-03-04 06:52:00,
2013-03-04 00:57:00,23.2,13.8,29.98,ESE,115,5.0,28.0,67,0.00,,,0.00,0.0,meteohub,2013-03-04 06:57:00,
2013-03-04 01:02:00,23.2,13.5,29.99,ENE,78,10.0,22.0,66,0.00,,,0.00,0.0,meteohub,2013-03-04 07:02:00,
2013-03-04 01:07:00,23.2,13.1,29.99,ESE,116,17.0,35.0,65,0.00,,,0.00,0.0,meteohub,2013-03-04 07:07:00,
2013-03-04 01:12:00,23.2,13.1,29.99,East,91,0.0,35.0,65,0.00,,,0.00,0.0,meteohub,2013-03-04 07:12:00,
2013-03-04 01:17:00,23.2,13.1,29.99,East,94,15.0,35.0,65,0.00,,,0.00,0.0,meteohub,2013-03-04 07:17:00,
2013-03-04 01:22:00,23.2,13.1,29.99,SE,136,7.0,28.0,65,0.00,,,0.00,0.0,meteohub,2013-03-04 07:22:00,
2013-03-04 01:27:00,23.2,13.5,29.99,ENE,64,0.0,22.0,66,0.00,,,0.00,0.0,meteohub,2013-03-04 07:27:00,
2013-03-04 01:32:00,23.2,12.7,29.99,SE,131,0.0,22.0,64,0.00,,,0.00,0.0,meteohub,2013-03-04 07:32:00,
2013-03-04 01:37:00,23.2,12.4,29.99,East,100,15.0,25.0,63,0.00,,,0.00,0.0,meteohub,2013-03-04 07:37:00,
2013-03-04 01:42:00,23.2,12.0,29.99,East,90,15.0,25.0,62,0.00,,,0.00,0.0,meteohub,2013-03-04 07:42:00,
2013-03-04 01:47:00,23.4,11.8,29.99,ESE,105,2.0,28.0,61,0.00,,,0.00,0.0,meteohub,2013-03-04 07:47:00,
2013-03-04 01:52:00,23.4,12.2,29.99,East,84,0.0,28.0,62,0.00,,,0.00,0.0,meteohub,2013-03-04 07:52:00,
2013-03-04 01:57:00,23.4,11.8,29.99,ESE,111,7.0,28.0,61,0.00,,,0.00,0.0,meteohub,2013-03-04 07:57:00,
2013-03-04 02:02:00,23.4,11.5,29.98,East,82,12.0,32.0,60,0.00,,,0.00,0.0,meteohub,2013-03-04 08:02:00,
2013-03-04 02:07:00,23.4,11.5,29.98,SE,125,12.0,32.0,60,0.00,,,0.00,0.0,meteohub,2013-03-04 08:07:00,
2013-03-04 02:13:00,23.4,11.5,29.98,East,88,25.0,32.0,60,0.00,,,0.00,0.0,meteohub,2013-03-04 08:13:00,
2013-03-04 02:17:00,23.4,11.1,29.98,ENE,64,17.0,28.0,59,0.00,,,0.00,0.0,meteohub,2013-03-04 08:17:00,
2013-03-04 02:22:00,23.4,11.1,29.98,ENE,67,7.0,30.0,59,0.00,,,0.00,0.0,meteohub,2013-03-04 08:22:00,
2013-03-04 02:28:00,23.4,11.1,29.98,ENE,65,25.0,30.0,59,0.00,,,0.00,0.0,meteohub,2013-03-04 08:28:00,
2013-03-04 02:33:00,23.4,11.1,29.98,East,101,12.0,30.0,59,0.00,,,0.00,0.0,meteohub,2013-03-04 08:33:00,
2013-03-04 02:38:00,23.2,10.9,29.98,ESE,113,12.0,38.0,59,0.00,,,0.00,0.0,meteohub,2013-03-04 08:38:00,
2013-03-04 02:43:00,23.2,10.6,29.98,ESE,105,7.0,38.0,58,0.00,,,0.00,0.0,meteohub,2013-03-04 08:43:00,
2013-03-04 02:48:00,23.2,10.6,29.98,ESE,117,5.0,30.0,58,0.00,,,0.00,0.0,meteohub,2013-03-04 08:48:00,
2013-03-04 02:53:00,23.2,10.6,29.98,East,89,17.0,30.0,58,0.00,,,0.00,0.0,meteohub,2013-03-04 08:53:00,
2013-03-04 02:58:00,23.2,10.2,29.97,ESE,103,17.0,30.0,57,0.00,,,0.00,0.0,meteohub,2013-03-04 08:58:00,
2013-03-04 03:03:00,23.0,10.4,29.97,East,93,25.0,25.0,58,0.00,,,0.00,0.0,meteohub,2013-03-04 09:03:00,
2013-03-04 03:08:00,23.0,10.0,29.97,East,92,12.0,35.0,57,0.00,,,0.00,0.0,meteohub,2013-03-04 09:08:00,
2013-03-04 03:13:00,22.8,10.2,29.97,ENE,75,0.0,35.0,58,0.00,,,0.00,0.0,meteohub,2013-03-04 09:13:00,
2013-03-04 03:18:00,22.8,9.9,29.97,SE,129,5.0,30.0,57,0.00,,,0.00,0.0,meteohub,2013-03-04 09:18:00,
2013-03-04 03:23:00,22.8,10.6,29.96,East,80,5.0,30.0,59,0.00,,,0.00,0.0,meteohub,2013-03-04 09:23:00,
2013-03-04 03:28:00,22.6,10.8,29.96,ENE,69,22.0,22.0,60,0.00,,,0.00,0.0,meteohub,2013-03-04 09:28:00,
2013-03-04 03:34:00,22.5,11.1,29.96,ENE,76,10.0,22.0,61,0.00,,,0.00,0.0,meteohub,2013-03-04 09:34:00,
2013-03-04 03:39:00,22.5,11.1,29.96,ENE,78,10.0,25.0,61,0.00,,,0.00,0.0,meteohub,2013-03-04 09:39:00,
2013-03-04 03:44:00,22.3,10.6,29.96,East,90,12.0,25.0,60,0.00,,,0.00,0.0,meteohub,2013-03-04 09:44:00,
2013-03-04 03:49:00,22.1,10.8,29.96,NE,42,15.0,32.0,61,0.00,,,0.00,0.0,meteohub,2013-03-04 09:49:00,
2013-03-04 03:54:00,21.9,10.2,29.96,SE,134,2.0,32.0,60,0.00,,,0.00,0.0,meteohub,2013-03-04 09:54:00,
2013-03-04 03:59:00,21.9,10.2,29.96,ESE,120,10.0,32.0,60,0.00,,,0.00,0.0,meteohub,2013-03-04 09:59:00,
2013-03-04 04:04:00,21.7,9.7,29.96,East,88,5.0,25.0,59,0.00,,,0.00,0.0,meteohub,2013-03-04 10:04:00,
2013-03-04 04:09:00,21.7,9.7,29.96,East,86,15.0,28.0,59,0.00,,,0.00,0.0,meteohub,2013-03-04 10:09:00,
2013-03-04 04:14:00,21.7,9.7,29.96,ESE,120,0.0,35.0,59,0.00,,,0.00,0.0,meteohub,2013-03-04 10:14:00,
2013-03-04 04:19:00,21.7,10.0,29.96,East,99,20.0,35.0,60,0.00,,,0.00,0.0,meteohub,2013-03-04 10:19:00,
2013-03-04 04:24:00,21.6,10.2,29.96,East,98,17.0,35.0,61,0.00,,,0.00,0.0,meteohub,2013-03-04 10:24:00,
2013-03-04 04:29:00,21.6,9.9,29.96,ESE,109,10.0,30.0,60,0.00,,,0.00,0.0,meteohub,2013-03-04 10:29:00,
2013-03-04 04:34:00,21.6,9.9,29.96,East,84,17.0,28.0,60,0.00,,,0.00,0.0,meteohub,2013-03-04 10:34:00,
2013-03-04 04:39:00,21.6,9.9,29.96,ENE,77,20.0,22.0,60,0.00,,,0.00,0.0,meteohub,2013-03-04 10:39:00,
2013-03-04 04:44:00,21.4,9.3,29.96,East,98,20.0,22.0,59,0.00,,,0.00,0.0,meteohub,2013-03-04 10:44:00,
2013-03-04 04:49:00,21.4,9.7,29.96,ENE,72,5.0,25.0,60,0.00,,,0.00,0.0,meteohub,2013-03-04 10:49:00,
2013-03-04 04:54:00,21.4,9.7,29.96,East,90,22.0,25.0,60,0.00,,,0.00,0.0,meteohub,2013-03-04 10:54:00,
2013-03-04 04:59:00,21.2,9.1,29.96,ENE,74,17.0,30.0,59,0.00,,,0.00,0.0,meteohub,2013-03-04 10:59:00,
2013-03-04 05:04:00,21.0,9.0,29.96,ENE,77,17.0,30.0,59,0.00,,,0.00,0.0,meteohub,2013-03-04 11:04:00,
2013-03-04 05:09:00,21.0,9.7,29.96,East,96,5.0,32.0,61,0.00,,,0.00,0.0,meteohub,2013-03-04 11:09:00,
2013-03-04 05:14:00,21.0,9.3,29.96,East,89,17.0,32.0,60,0.00,,,0.00,0.0,meteohub,2013-03-04 11:14:00,
2013-03-04 05:19:00,21.0,9.7,29.96,East,99,12.0,32.0,61,0.00,,,0.00,0.0,meteohub,2013-03-04 11:19:00,
2013-03-04 05:24:00,21.0,9.7,29.96,ESE,118,7.0,28.0,61,0.00,,,0.00,0.0,meteohub,2013-03-04 11:24:00,
2013-03-04 05:30:00,21.0,9.7,29.96,ESE,118,5.0,28.0,61,0.00,,,0.00,0.0,meteohub,2013-03-04 11:30:00,
2013-03-04 05:35:00,21.0,9.3,29.96,East,91,12.0,28.0,60,0.00,,,0.00,0.0,meteohub,2013-03-04 11:35:00,
2013-03-04 05:40:00,21.0,9.7,29.96,East,79,12.0,28.0,61,0.00,,,0.00,0.0,meteohub,2013-03-04 11:40:00,
2013-03-04 05:45:00,21.0,9.7,29.96,ENE,71,5.0,25.0,61,0.00,,,0.00,0.0,meteohub,2013-03-04 11:45:00,
2013-03-04 05:50:00,21.0,9.7,29.96,ESE,107,7.0,25.0,61,0.00,,,0.00,0.0,meteohub,2013-03-04 11:50:00,
2013-03-04 05:55:00,21.0,9.3,29.96,ESE,121,7.0,22.0,60,0.00,,,0.00,0.0,meteohub,2013-03-04 11:55:00,
2013-03-04 06:00:00,21.0,9.3,29.96,ESE,112,5.0,20.0,60,0.00,,,0.00,0.0,meteohub,2013-03-04 12:00:00,
2013-03-04 06:05:00,21.0,9.3,29.96,ESE,107,12.0,28.0,60,0.00,,,0.00,0.0,meteohub,2013-03-04 12:05:00,
2013-03-04 06:10:00,21.0,9.3,29.96,East,79,5.0,28.0,60,0.00,,,0.00,0.0,meteohub,2013-03-04 12:10:00,
2013-03-04 06:15:00,21.0,9.3,29.96,East,100,7.0,28.0,60,0.00,,,0.00,0.0,meteohub,2013-03-04 12:15:00,
2013-03-04 06:20:00,21.0,9.0,29.96,East,101,7.0,25.0,59,0.00,,,0.00,0.0,meteohub,2013-03-04 12:20:00,
2013-03-04 06:25:00,21.2,9.1,29.97,ESE,113,0.0,25.0,59,0.00,,,0.00,0.0,meteohub,2013-03-04 12:25:00,
2013-03-04 06:30:00,21.2,9.1,29.97,East,92,0.0,25.0,59,0.00,,,0.00,0.0,meteohub,2013-03-04 12:30:00,
2013-03-04 06:35:00,21.4,9.3,29.97,East,93,7.0,25.0,59,0.00,,,0.00,0.0,meteohub,2013-03-04 12:35:00,
2013-03-04 06:41:00,21.4,9.0,29.96,East,94,0.0,20.0,58,0.00,,,0.00,0.0,meteohub,2013-03-04 12:41:00,
2013-03-04 06:46:00,21.4,9.3,29.96,East,83,22.0,22.0,59,0.00,,,0.00,0.0,meteohub,2013-03-04 12:46:00,
2013-03-04 06:51:00,21.4,9.0,29.96,ESE,115,0.0,22.0,58,0.00,,,0.00,0.0,meteohub,2013-03-04 12:51:00,
2013-03-04 06:56:00,21.6,9.1,29.96,East,101,2.0,22.0,58,0.00,,,0.00,0.0,meteohub,2013-03-04 12:56:00,
2013-03-04 07:01:00,21.6,9.5,29.96,East,85,12.0,22.0,59,0.00,,,0.00,5.0,meteohub,2013-03-04 13:01:00,
2013-03-04 07:06:00,21.6,9.5,29.96,ENE,76,20.0,20.0,59,0.00,,,0.00,7.0,meteohub,2013-03-04 13:06:00,
2013-03-04 07:11:00,21.6,9.5,29.97,East,98,7.0,22.0,59,0.00,,,0.00,11.0,meteohub,2013-03-04 13:11:00,
2013-03-04 07:16:00,21.6,9.9,29.97,NE,40,7.0,22.0,60,0.00,,,0.00,14.0,meteohub,2013-03-04 13:16:00,
2013-03-04 07:21:00,21.6,9.5,29.97,East,82,2.0,22.0,59,0.00,,,0.00,18.0,meteohub,2013-03-04 13:21:00,
2013-03-04 07:26:00,21.7,9.7,29.98,ESE,120,0.0,28.0,59,0.00,,,0.00,21.0,meteohub,2013-03-04 13:26:00,
2013-03-04 07:31:00,21.7,9.7,29.98,ESE,111,2.0,28.0,59,0.00,,,0.00,25.0,meteohub,2013-03-04 13:31:00,
2013-03-04 07:36:00,21.7,10.0,29.98,SE,138,10.0,28.0,60,0.00,,,0.00,26.0,meteohub,2013-03-04 13:36:00,
2013-03-04 07:41:00,21.7,10.4,29.98,ESE,113,0.0,25.0,61,0.00,,,0.00,30.0,meteohub,2013-03-04 13:41:00,
2013-03-04 07:46:00,21.7,11.1,29.98,East,84,0.0,25.0,63,0.00,,,0.00,32.0,meteohub,2013-03-04 13:46:00,
2013-03-04 07:51:00,21.6,10.9,29.98,ENE,66,10.0,25.0,63,0.00,,,0.00,35.0,meteohub,2013-03-04 13:51:00,
2013-03-04 07:56:00,21.6,11.3,29.98,SE,132,0.0,22.0,64,0.00,,,0.00,37.0,meteohub,2013-03-04 13:56:00,
2013-03-04 08:01:00,21.4,11.5,29.98,East,81,7.0,28.0,65,0.00,,,0.00,42.0,meteohub,2013-03-04 14:01:00,
2013-03-04 08:06:00,21.4,11.8,29.99,East,91,17.0,28.0,66,0.00,,,0.00,51.0,meteohub,2013-03-04 14:06:00,
2013-03-04 08:11:00,21.4,12.2,29.99,ESE,111,7.0,28.0,67,0.00,,,0.00,60.0,meteohub,2013-03-04 14:11:00,
2013-03-04 08:16:00,21.4,12.4,29.98,ESE,113,5.0,32.0,68,0.00,,,0.00,67.0,meteohub,2013-03-04 14:16:00,
2013-03-04 08:21:00,21.4,12.7,29.98,ESE,120,7.0,32.0,69,0.00,,,0.00,77.0,meteohub,2013-03-04 14:21:00,
2013-03-04 08:26:00,21.4,13.1,29.98,SE,125,10.0,28.0,70,0.00,,,0.00,83.0,meteohub,2013-03-04 14:26:00,
2013-03-04 08:31:00,21.2,13.3,29.98,SE,132,10.0,30.0,71,0.00,,,0.00,95.0,meteohub,2013-03-04 14:31:00,
2013-03-04 08:36:00,21.0,13.8,29.98,NE,42,0.0,30.0,73,0.00,,,0.00,107.0,meteohub,2013-03-04 14:36:00,
2013-03-04 08:41:00,21.0,13.8,29.98,ENE,57,0.0,35.0,73,0.00,,,0.00,116.0,meteohub,2013-03-04 14:41:00,
2013-03-04 08:46:00,21.4,13.8,29.98,ESE,107,2.0,35.0,72,0.00,,,0.00,111.0,meteohub,2013-03-04 14:46:00,
2013-03-04 08:51:00,21.6,13.6,29.98,SE,132,0.0,38.0,71,0.00,,,0.00,116.0,meteohub,2013-03-04 14:51:00,
2013-03-04 08:56:00,21.7,14.2,29.98,ENE,66,7.0,38.0,72,0.00,,,0.00,132.0,meteohub,2013-03-04 14:56:00,
2013-03-04 09:01:00,21.9,14.4,29.98,East,96,15.0,38.0,72,0.00,,,0.00,158.0,meteohub,2013-03-04 15:01:00,
2013-03-04 09:06:00,21.9,13.6,29.98,ESE,105,38.0,38.0,70,0.00,,,0.00,190.0,meteohub,2013-03-04 15:06:00,
2013-03-04 09:11:00,22.3,13.6,29.98,East,93,12.0,38.0,69,0.00,,,0.00,188.0,meteohub,2013-03-04 15:11:00,
2013-03-04 09:16:00,22.5,13.5,29.98,SSE,155,12.0,38.0,68,0.00,,,0.00,195.0,meteohub,2013-03-04 15:16:00,
2013-03-04 09:22:00,22.8,13.1,29.98,East,91,2.0,38.0,66,0.00,,,0.00,202.0,meteohub,2013-03-04 15:22:00,
2013-03-04 09:27:00,23.0,13.3,29.97,ENE,77,20.0,45.0,66,0.00,,,0.00,207.0,meteohub,2013-03-04 15:27:00,
2013-03-04 09:32:00,23.0,14.0,29.97,ESE,115,22.0,45.0,68,0.00,,,0.00,234.0,meteohub,2013-03-04 15:32:00,
2013-03-04 09:37:00,22.8,14.5,29.97,East,86,7.0,48.0,70,0.00,,,0.00,276.0,meteohub,2013-03-04 15:37:00,
2013-03-04 09:42:00,23.0,15.6,29.97,East,86,2.0,48.0,73,0.00,,,0.00,272.0,meteohub,2013-03-04 15:42:00,
2013-03-04 09:47:00,23.2,15.8,29.97,ESE,113,0.0,45.0,73,0.00,,,0.00,278.0,meteohub,2013-03-04 15:47:00,
2013-03-04 09:52:00,23.2,15.8,29.97,SE,135,0.0,45.0,73,0.00,,,0.00,297.0,meteohub,2013-03-04 15:52:00,
2013-03-04 09:57:00,23.4,16.0,29.97,NE,52,10.0,28.0,73,0.00,,,0.00,225.0,meteohub,2013-03-04 15:57:00,
2013-03-04 10:02:00,23.4,16.3,29.97,NNE,30,15.0,48.0,74,0.00,,,0.00,264.0,meteohub,2013-03-04 16:02:00,
2013-03-04 10:07:00,23.4,16.0,29.97,SSE,156,2.0,48.0,73,0.00,,,0.00,330.0,meteohub,2013-03-04 16:07:00,
2013-03-04 10:12:00,23.5,15.8,29.97,SE,124,0.0,48.0,72,0.00,,,0.00,338.0,meteohub,2013-03-04 16:12:00,
2013-03-04 10:17:00,23.9,16.2,29.97,SE,130,7.0,43.0,72,0.00,,,0.00,327.0,meteohub,2013-03-04 16:17:00,
2013-03-04 10:22:00,24.3,17.4,29.97,East,84,12.0,35.0,75,0.00,,,0.00,290.0,meteohub,2013-03-04 16:22:00,
2013-03-04 10:27:00,24.6,16.0,29.97,ESE,119,5.0,40.0,69,0.00,,,0.00,309.0,meteohub,2013-03-04 16:27:00,
2013-03-04 10:32:00,24.8,16.2,29.97,ENE,67,27.0,40.0,69,0.00,,,0.00,287.0,meteohub,2013-03-04 16:32:00,
2013-03-04 10:37:00,24.6,15.6,29.97,East,96,25.0,40.0,68,0.00,,,0.00,279.0,meteohub,2013-03-04 16:37:00,
2013-03-04 10:42:00,24.6,16.0,29.97,ENE,70,7.0,43.0,69,0.00,,,0.00,287.0,meteohub,2013-03-04 16:42:00,
2013-03-04 10:47:00,24.8,16.2,29.96,SE,135,7.0,43.0,69,0.00,,,0.00,306.0,meteohub,2013-03-04 16:47:00,
2013-03-04 10:52:00,25.0,15.6,29.96,East,82,12.0,43.0,67,0.00,,,0.00,248.0,meteohub,2013-03-04 16:52:00,
2013-03-04 10:57:00,25.0,16.0,29.96,SE,140,22.0,38.0,68,0.00,,,0.00,211.0,meteohub,2013-03-04 16:57:00,
2013-03-04 11:02:00,24.8,16.2,29.96,ESE,123,12.0,40.0,69,0.00,,,0.00,220.0,meteohub,2013-03-04 17:02:00,
2013-03-04 11:07:00,24.8,16.2,29.96,East,99,0.0,40.0,69,0.00,,,0.00,239.0,meteohub,2013-03-04 17:07:00,
2013-03-04 11:12:00,25.0,16.3,29.96,NE,50,2.0,38.0,69,0.00,,,0.00,214.0,meteohub,2013-03-04 17:12:00,
2013-03-04 11:17:00,25.0,16.9,29.96,SSE,158,5.0,38.0,71,0.00,,,0.00,197.0,meteohub,2013-03-04 17:17:00,
2013-03-04 11:22:00,24.8,17.4,29.96,East,84,5.0,38.0,73,0.00,,,0.00,200.0,meteohub,2013-03-04 17:22:00,
2013-03-04 11:28:00,24.6,17.6,29.96,East,99,15.0,38.0,74,0.00,,,0.00,195.0,meteohub,2013-03-04 17:28:00,
2013-03-04 11:32:00,24.6,17.8,29.96,East,81,12.0,40.0,75,0.00,,,0.00,190.0,meteohub,2013-03-04 17:32:00,
2013-03-04 11:38:00,24.6,17.8,29.96,East,88,20.0,40.0,75,0.00,,,0.00,206.0,meteohub,2013-03-04 17:38:00,
2013-03-04 11:43:00,24.6,18.1,29.96,ESE,109,25.0,40.0,76,0.00,,,0.00,206.0,meteohub,2013-03-04 17:43:00,
2013-03-04 11:48:00,24.4,18.0,29.96,ESE,103,0.0,38.0,76,0.00,,,0.00,186.0,meteohub,2013-03-04 17:48:00,
2013-03-04 11:53:00,24.6,17.8,29.95,East,80,17.0,38.0,75,0.00,,,0.00,193.0,meteohub,2013-03-04 17:53:00,
2013-03-04 11:58:00,24.8,18.0,29.95,ESE,106,5.0,38.0,75,0.00,,,0.00,162.0,meteohub,2013-03-04 17:58:00,
2013-03-04 12:03:00,24.8,17.4,29.95,ESE,108,22.0,38.0,73,0.00,,,0.00,178.0,meteohub,2013-03-04 18:03:00,
2013-03-04 12:08:00,25.0,17.6,29.95,East,85,25.0,38.0,73,0.00,,,0.00,163.0,meteohub,2013-03-04 18:08:00,
2013-03-04 12:13:00,24.8,17.1,29.96,ENE,77,17.0,38.0,72,0.00,,,0.00,141.0,meteohub,2013-03-04 18:13:00,
2013-03-04 12:18:00,24.8,17.1,29.96,SE,141,5.0,43.0,72,0.00,,,0.00,144.0,meteohub,2013-03-04 18:18:00,
2013-03-04 12:23:00,25.0,17.6,29.95,SE,137,7.0,43.0,73,0.00,,,0.00,151.0,meteohub,2013-03-04 18:23:00,
2013-03-04 12:28:00,25.0,17.6,29.95,ESE,113,2.0,35.0,73,0.00,,,0.00,149.0,meteohub,2013-03-04 18:28:00,
2013-03-04 12:29:00,25.0,17.6,29.95,East,86,17.0,35.0,73,0.00,,,0.00,149.0,meteohub,2013-03-04 18:29:00,
2013-03-04 12:30:00,25.0,17.6,29.95,ESE,112,17.0,35.0,73,0.00,,,0.00,149.0,meteohub,2013-03-04 18:30:00,
2013-03-04 12:35:00,25.0,17.6,29.95,ENE,70,2.0,28.0,73,0.00,,,0.00,148.0,meteohub,2013-03-04 18:35:00,
2013-03-04 12:40:00,25.0,18.0,29.95,SE,140,2.0,28.0,74,0.00,,,0.00,135.0,meteohub,2013-03-04 18:40:00,
2013-03-04 12:45:00,25.0,18.1,29.95,NE,34,0.0,28.0,75,0.00,,,0.00,132.0,meteohub,2013-03-04 18:45:00,
2013-03-04 12:50:00,25.0,18.5,29.95,East,80,7.0,25.0,76,0.00,,,0.00,125.0,meteohub,2013-03-04 18:50:00,
2013-03-04 12:55:00,25.2,18.7,29.95,NE,53,10.0,28.0,76,0.00,,,0.00,116.0,meteohub,2013-03-04 18:55:00,
2013-03-04 13:00:00,25.2,19.0,29.95,SE,125,5.0,28.0,77,0.00,,,0.00,105.0,meteohub,2013-03-04 19:00:00,
2013-03-04 13:06:00,25.2,19.0,29.95,SE,132,0.0,28.0,77,0.00,,,0.00,125.0,meteohub,2013-03-04 19:06:00,
2013-03-04 13:11:00,25.2,19.0,29.95,East,94,7.0,22.0,77,0.00,,,0.00,127.0,meteohub,2013-03-04 19:11:00,
2013-03-04 13:16:00,25.2,18.7,29.94,East,96,15.0,30.0,76,0.01,,,0.01,128.0,meteohub,2013-03-04 19:16:00,
2013-03-04 13:21:00,25.2,19.0,29.94,East,90,15.0,40.0,77,0.01,,,0.01,120.0,meteohub,2013-03-04 19:21:00,
2013-03-04 13:26:00,25.3,19.2,29.94,ESE,114,0.0,40.0,77,0.01,,,0.01,128.0,meteohub,2013-03-04 19:26:00,
2013-03-04 13:31:00,25.3,19.2,29.94,East,94,7.0,40.0,77,0.01,,,0.01,137.0,meteohub,2013-03-04 19:31:00,
2013-03-04 13:36:00,25.5,19.0,29.94,ENE,67,27.0,27.0,76,0.01,,,0.01,151.0,meteohub,2013-03-04 19:36:00,
2013-03-04 13:41:00,25.5,19.0,29.94,SSW,202,2.0,35.0,76,0.01,,,0.01,153.0,meteohub,2013-03-04 19:41:00,
2013-03-04 13:46:00,25.3,18.9,29.94,East,86,2.0,35.0,76,0.01,,,0.01,137.0,meteohub,2013-03-04 19:46:00,
2013-03-04 13:51:00,25.3,19.4,29.94,ESE,121,0.0,35.0,78,0.01,,,0.01,113.0,meteohub,2013-03-04 19:51:00,
2013-03-04 13:56:00,25.3,19.4,29.94,SE,136,10.0,22.0,78,0.01,,,0.01,111.0,meteohub,2013-03-04 19:56:00,
2013-03-04 14:01:00,25.2,19.6,29.94,SSE,154,2.0,20.0,79,0.01,,,0.01,102.0,meteohub,2013-03-04 20:01:00,
2013-03-04 14:06:00,25.2,19.6,29.94,SE,130,0.0,20.0,79,0.01,,,0.01,93.0,meteohub,2013-03-04 20:06:00,
2013-03-04 14:11:00,25.2,19.2,29.94,ESE,102,0.0,22.0,78,0.01,,,0.01,84.0,meteohub,2013-03-04 20:11:00,
2013-03-04 14:16:00,25.2,19.2,29.94,ESE,118,0.0,22.0,78,0.00,,,0.01,91.0,meteohub,2013-03-04 20:16:00,
2013-03-04 14:21:00,25.2,19.2,29.95,NNE,21,0.0,20.0,78,0.00,,,0.01,90.0,meteohub,2013-03-04 20:21:00,
2013-03-04 14:26:00,25.3,19.4,29.95,ESE,108,7.0,20.0,78,0.01,,,0.02,84.0,meteohub,2013-03-04 20:26:00,
2013-03-04 14:32:00,25.3,18.9,29.95,South,171,0.0,20.0,76,0.01,,,0.02,76.0,meteohub,2013-03-04 20:32:00,
2013-03-04 14:37:00,25.5,18.7,29.95,East,98,0.0,20.0,75,0.01,,,0.02,67.0,meteohub,2013-03-04 20:37:00,
2013-03-04 14:42:00,25.5,18.7,29.95,SE,127,0.0,20.0,75,0.01,,,0.02,72.0,meteohub,2013-03-04 20:42:00,
2013-03-04 14:47:00,25.5,18.1,29.95,SSE,159,0.0,20.0,73,0.01,,,0.02,65.0,meteohub,2013-03-04 20:47:00,
2013-03-04 14:52:00,25.7,17.6,29.95,SE,128,5.0,12.0,71,0.01,,,0.02,74.0,meteohub,2013-03-04 20:52:00,
2013-03-04 14:57:00,25.9,18.1,29.96,SSE,153,2.0,20.0,72,0.01,,,0.02,69.0,meteohub,2013-03-04 20:57:00,
2013-03-04 15:02:00,25.9,18.1,29.96,NNW,327,0.0,20.0,72,0.01,,,0.02,62.0,meteohub,2013-03-04 21:02:00,
2013-03-04 15:07:00,25.9,17.8,29.96,SE,137,7.0,22.0,71,0.01,,,0.02,56.0,meteohub,2013-03-04 21:07:00,
2013-03-04 15:12:00,25.7,17.6,29.96,SSE,155,7.0,22.0,71,0.01,,,0.02,54.0,meteohub,2013-03-04 21:12:00,
2013-03-04 15:17:00,25.7,18.0,29.96,East,82,0.0,22.0,72,0.01,,,0.02,54.0,meteohub,2013-03-04 21:17:00,
2013-03-04 15:22:00,25.7,17.2,29.96,SE,139,0.0,20.0,70,0.00,,,0.02,53.0,meteohub,2013-03-04 21:22:00,
2013-03-04 15:27:00,25.7,17.6,29.96,ESE,111,7.0,22.0,71,0.00,,,0.02,53.0,meteohub,2013-03-04 21:27:00,
2013-03-04 15:32:00,25.7,17.2,29.96,East,90,5.0,22.0,70,0.00,,,0.02,54.0,meteohub,2013-03-04 21:32:00,
2013-03-04 15:37:00,25.7,17.2,29.96,ESE,105,7.0,30.0,70,0.00,,,0.02,56.0,meteohub,2013-03-04 21:37:00,
2013-03-04 15:42:00,25.7,17.2,29.96,SSE,161,5.0,30.0,70,0.00,,,0.02,49.0,meteohub,2013-03-04 21:42:00,
2013-03-04 15:47:00,25.5,17.1,29.96,SSE,148,12.0,28.0,70,0.00,,,0.02,44.0,meteohub,2013-03-04 21:47:00,
2013-03-04 15:52:00,25.5,17.4,29.96,ESE,107,7.0,30.0,71,0.00,,,0.02,40.0,meteohub,2013-03-04 21:52:00,
2013-03-04 15:57:00,25.5,17.1,29.97,SE,140,0.0,30.0,70,0.00,,,0.02,37.0,meteohub,2013-03-04 21:57:00,
2013-03-04 16:03:00,25.3,17.6,29.97,ESE,107,5.0,30.0,72,0.00,,,0.02,33.0,meteohub,2013-03-04 22:03:00,
2013-03-04 16:08:00,25.3,17.6,29.97,SSE,167,7.0,25.0,72,0.00,,,0.02,33.0,meteohub,2013-03-04 22:08:00,
2013-03-04 16:13:00,25.2,17.1,29.97,ESE,120,2.0,20.0,71,0.00,,,0.02,33.0,meteohub,2013-03-04 22:13:00,
2013-03-04 16:18:00,25.2,17.8,29.97,SSE,151,2.0,22.0,73,0.00,,,0.02,30.0,meteohub,2013-03-04 22:18:00,
2013-03-04 16:23:00,25.2,17.8,29.97,ESE,115,7.0,22.0,73,0.00,,,0.02,26.0,meteohub,2013-03-04 22:23:00,
2013-03-04 16:28:00,25.0,17.6,29.97,SSE,159,2.0,22.0,73,0.00,,,0.02,25.0,meteohub,2013-03-04 22:28:00,
2013-03-04 16:33:00,24.8,17.4,29.97,ESE,120,5.0,22.0,73,0.00,,,0.02,26.0,meteohub,2013-03-04 22:33:00,
2013-03-04 16:38:00,24.8,17.8,29.98,SE,145,7.0,25.0,74,0.01,,,0.03,30.0,meteohub,2013-03-04 22:38:00,
2013-03-04 16:43:00,24.6,17.6,29.97,SE,133,0.0,25.0,74,0.01,,,0.03,33.0,meteohub,2013-03-04 22:43:00,
2013-03-04 16:48:00,24.4,17.6,29.97,ESE,105,10.0,25.0,75,0.01,,,0.03,32.0,meteohub,2013-03-04 22:48:00,
2013-03-04 16:53:00,24.4,18.0,29.97,East,82,17.0,28.0,76,0.01,,,0.03,35.0,meteohub,2013-03-04 22:53:00,
2013-03-04 16:58:00,24.3,18.1,29.98,SE,140,0.0,28.0,77,0.01,,,0.03,44.0,meteohub,2013-03-04 22:58:00,
2013-03-04 17:03:00,24.1,18.1,29.98,ESE,107,0.0,28.0,78,0.01,,,0.03,37.0,meteohub,2013-03-04 23:03:00,
2013-03-04 17:08:00,24.1,18.1,29.97,SSE,162,7.0,28.0,78,0.01,,,0.03,26.0,meteohub,2013-03-04 23:08:00,
2013-03-04 17:13:00,24.1,18.5,29.97,SSE,159,0.0,28.0,79,0.01,,,0.03,23.0,meteohub,2013-03-04 23:13:00,
2013-03-04 17:19:00,23.9,18.7,29.97,ESE,121,7.0,22.0,80,0.01,,,0.03,25.0,meteohub,2013-03-04 23:19:00,
2013-03-04 17:24:00,23.7,18.5,29.97,ENE,74,2.0,22.0,80,0.02,,,0.04,21.0,meteohub,2013-03-04 23:24:00,
2013-03-04 17:29:00,23.7,18.5,29.97,ESE,105,10.0,32.0,80,0.02,,,0.04,18.0,meteohub,2013-03-04 23:29:00,
2013-03-04 17:34:00,23.7,18.7,29.98,East,92,0.0,32.0,81,0.03,,,0.05,11.0,meteohub,2013-03-04 23:34:00,
2013-03-04 17:39:00,23.5,18.5,29.98,East,84,5.0,32.0,81,0.02,,,0.05,9.0,meteohub,2013-03-04 23:39:00,
2013-03-04 17:44:00,23.5,18.9,29.98,SE,130,0.0,25.0,82,0.02,,,0.05,7.0,meteohub,2013-03-04 23:44:00,
2013-03-04 17:49:00,23.5,18.9,29.98,East,94,5.0,25.0,82,0.03,,,0.06,5.0,meteohub,2013-03-04 23:49:00,
2013-03-04 17:54:00,23.4,18.7,29.98,ESE,109,0.0,22.0,82,0.03,,,0.06,5.0,meteohub,2013-03-04 23:54:00,
2013-03-04 17:59:00,23.4,19.0,29.98,ESE,123,0.0,20.0,83,0.03,,,0.06,0.0,meteohub,2013-03-04 23:59:00,
2013-03-04 18:04:00,23.2,18.9,29.98,ENE,76,12.0,22.0,83,0.04,,,0.06,0.0,meteohub,2013-03-05 00:04:00,
2013-03-04 18:09:00,23.2,18.9,29.98,East,95,7.0,22.0,83,0.04,,,0.07,0.0,meteohub,2013-03-05 00:09:00,
2013-03-04 18:14:00,23.2,18.9,29.98,ESE,104,10.0,22.0,83,0.04,,,0.07,0.0,meteohub,2013-03-05 00:14:00,
2013-03-04 18:19:00,23.2,18.9,29.99,ESE,102,7.0,20.0,83,0.03,,,0.07,0.0,meteohub,2013-03-05 00:19:00,
2013-03-04 18:24:00,23.0,18.7,29.99,East,90,7.0,25.0,83,0.03,,,0.07,0.0,meteohub,2013-03-05 00:24:00,
2013-03-04 18:29:00,23.0,18.7,29.99,SE,127,0.0,25.0,83,0.03,,,0.07,0.0,meteohub,2013-03-05 00:29:00,
2013-03-04 18:34:00,23.0,18.7,29.99,ESE,102,10.0,25.0,83,0.02,,,0.07,0.0,meteohub,2013-03-05 00:34:00,
2013-03-04 18:39:00,23.0,18.7,29.99,ENE,64,2.0,22.0,83,0.02,,,0.07,0.0,meteohub,2013-03-05 00:39:00,
2013-03-04 18:44:00,22.8,18.7,29.99,ENE,77,0.0,25.0,84,0.02,,,0.07,0.0,meteohub,2013-03-05 00:44:00,
2013-03-04 18:49:00,22.8,19.0,29.99,ESE,113,5.0,25.0,85,0.02,,,0.08,0.0,meteohub,2013-03-05 00:49:00,
2013-03-04 18:54:00,22.6,18.9,29.99,ESE,113,22.0,32.0,85,0.02,,,0.08,0.0,meteohub,2013-03-05 00:54:00,
2013-03-04 18:59:00,22.6,19.0,29.99,SE,125,7.0,32.0,86,0.03,,,0.09,0.0,meteohub,2013-03-05 00:59:00,
2013-03-04 19:04:00,22.5,18.9,29.99,SSE,163,5.0,32.0,86,0.02,,,0.09,0.0,meteohub,2013-03-05 01:04:00,
2013-03-04 19:09:00,22.5,18.9,29.99,ESE,110,0.0,25.0,86,0.02,,,0.09,0.0,meteohub,2013-03-05 01:09:00,
2013-03-04 19:15:00,22.5,19.2,29.99,ESE,103,5.0,25.0,87,0.02,,,0.09,0.0,meteohub,2013-03-05 01:15:00,
2013-03-04 19:20:00,22.5,19.2,29.99,ENE,74,0.0,20.0,87,0.02,,,0.09,0.0,meteohub,2013-03-05 01:20:00,
2013-03-04 19:25:00,22.5,19.2,29.99,East,92,5.0,20.0,87,0.03,,,0.10,0.0,meteohub,2013-03-05 01:25:00,
2013-03-04 19:30:00,22.5,19.2,30.00,ENE,77,0.0,17.0,87,0.03,,,0.10,0.0,meteohub,2013-03-05 01:30:00,
2013-03-04 19:35:00,22.5,19.2,30.00,ESE,110,10.0,17.0,87,0.03,,,0.10,0.0,meteohub,2013-03-05 01:35:00,
2013-03-04 19:40:00,22.5,19.2,30.01,ESE,119,0.0,17.0,87,0.02,,,0.10,0.0,meteohub,2013-03-05 01:40:00,
2013-03-04 19:45:00,22.5,19.2,30.01,SSE,150,0.0,17.0,87,0.02,,,0.10,0.0,meteohub,2013-03-05 01:45:00,
2013-03-04 19:50:00,22.5,19.2,30.01,ESE,106,5.0,20.0,87,0.02,,,0.10,0.0,meteohub,2013-03-05 01:50:00,
2013-03-04 19:55:00,22.5,19.2,30.01,ESE,103,0.0,20.0,87,0.01,,,0.10,0.0,meteohub,2013-03-05 01:55:00,
2013-03-04 20:00:00,22.5,19.2,30.01,East,98,12.0,20.0,87,0.01,,,0.10,0.0,meteohub,2013-03-05 02:00:00,
2013-03-04 20:05:00,22.5,19.2,30.01,SE,135,0.0,17.0,87,0.02,,,0.11,0.0,meteohub,2013-03-05 02:05:00,
2013-03-04 20:10:00,22.5,19.2,30.01,ESE,111,0.0,17.0,87,0.02,,,0.11,0.0,meteohub,2013-03-05 02:10:00,
2013-03-04 20:16:00,22.3,19.0,30.01,ESE,123,0.0,17.0,87,0.02,,,0.11,0.0,meteohub,2013-03-05 02:16:00,
2013-03-04 20:21:00,22.3,19.0,30.01,ESE,115,0.0,15.0,87,0.01,,,0.11,0.0,meteohub,2013-03-05 02:21:00,
2013-03-04 20:26:00,22.3,19.0,30.02,SE,139,0.0,15.0,87,0.01,,,0.11,0.0,meteohub,2013-03-05 02:26:00,
2013-03-04 20:31:00,22.3,19.0,30.03,ESE,121,0.0,15.0,87,0.01,,,0.11,0.0,meteohub,2013-03-05 02:31:00,
2013-03-04 20:36:00,22.3,19.0,30.02,ESE,117,0.0,12.0,87,0.01,,,0.11,0.0,meteohub,2013-03-05 02:36:00,
2013-03-04 20:41:00,22.3,19.0,30.02,ENE,70,0.0,12.0,87,0.01,,,0.11,0.0,meteohub,2013-03-05 02:41:00,
2013-03-04 20:46:00,22.3,19.0,30.03,ESE,113,0.0,12.0,87,0.02,,,0.12,0.0,meteohub,2013-03-05 02:46:00,
2013-03-04 20:51:00,22.3,19.2,30.03,ENE,63,0.0,5.0,88,0.02,,,0.12,0.0,meteohub,2013-03-05 02:51:00,
2013-03-04 20:56:00,22.5,19.4,30.04,East,82,0.0,12.0,88,0.02,,,0.12,0.0,meteohub,2013-03-05 02:56:00,
2013-03-04 21:01:00,22.5,19.4,30.03,East,96,0.0,12.0,88,0.03,,,0.13,0.0,meteohub,2013-03-05 03:01:00,
2013-03-04 21:06:00,22.5,19.4,30.03,East,98,0.0,12.0,88,0.02,,,0.13,0.0,meteohub,2013-03-05 03:06:00,
2013-03-04 21:11:00,22.5,19.4,30.03,ESE,109,0.0,12.0,88,0.02,,,0.13,0.0,meteohub,2013-03-05 03:11:00,
2013-03-04 21:16:00,22.3,19.2,30.03,ESE,110,10.0,12.0,88,0.02,,,0.13,0.0,meteohub,2013-03-05 03:16:00,
2013-03-04 21:21:00,22.5,19.4,30.02,ENE,67,10.0,10.0,88,0.02,,,0.13,0.0,meteohub,2013-03-05 03:21:00,
2013-03-04 21:26:00,22.3,19.2,30.02,ENE,66,2.0,17.0,88,0.02,,,0.13,0.0,meteohub,2013-03-05 03:26:00,
2013-03-04 21:31:00,22.3,19.2,30.01,East,84,7.0,17.0,88,0.02,,,0.13,0.0,meteohub,2013-03-05 03:31:00,
2013-03-04 21:37:00,22.3,19.2,30.02,East,82,0.0,17.0,88,0.03,,,0.14,0.0,meteohub,2013-03-05 03:37:00,
2013-03-04 21:42:00,22.3,19.2,30.01,ESE,109,0.0,17.0,88,0.02,,,0.14,0.0,meteohub,2013-03-05 03:42:00,
2013-03-04 21:47:00,22.3,19.2,30.01,ENE,76,0.0,17.0,88,0.02,,,0.14,0.0,meteohub,2013-03-05 03:47:00,
2013-03-04 21:52:00,22.3,19.2,30.01,East,79,0.0,17.0,88,0.02,,,0.14,0.0,meteohub,2013-03-05 03:52:00,
2013-03-04 21:57:00,22.3,19.2,30.01,East,91,15.0,17.0,88,0.02,,,0.14,0.0,meteohub,2013-03-05 03:57:00,
2013-03-04 22:02:00,22.1,19.0,30.01,ENE,69,0.0,17.0,88,0.01,,,0.14,0.0,meteohub,2013-03-05 04:02:00,
2013-03-04 22:07:00,22.1,19.0,30.02,East,84,0.0,17.0,88,0.01,,,0.14,0.0,meteohub,2013-03-05 04:07:00,
2013-03-04 22:12:00,22.1,19.0,30.02,ESE,102,0.0,17.0,88,0.01,,,0.14,0.0,meteohub,2013-03-05 04:12:00,
2013-03-04 22:17:00,22.3,19.2,30.02,East,90,0.0,15.0,88,0.01,,,0.14,0.0,meteohub,2013-03-05 04:17:00,
2013-03-04 22:22:00,22.3,19.2,30.03,East,88,0.0,15.0,88,0.01,,,0.14,0.0,meteohub,2013-03-05 04:22:00,
2013-03-04 22:27:00,22.3,19.2,30.03,ENE,78,0.0,12.0,88,0.01,,,0.14,0.0,meteohub,2013-03-05 04:27:00,
2013-03-04 22:32:00,22.3,19.2,30.03,ENE,74,5.0,12.0,88,0.00,,,0.14,0.0,meteohub,2013-03-05 04:32:00,
2013-03-04 22:37:00,22.3,19.6,30.03,East,84,5.0,7.0,89,0.00,,,0.14,0.0,meteohub,2013-03-05 04:37:00,
2013-03-04 22:42:00,22.3,19.6,30.03,SE,135,0.0,12.0,89,0.01,,,0.15,0.0,meteohub,2013-03-05 04:42:00,
2013-03-04 22:47:00,22.3,19.6,30.03,NE,55,0.0,12.0,89,0.01,,,0.15,0.0,meteohub,2013-03-05 04:47:00,
2013-03-04 22:52:00,22.3,19.6,30.03,East,88,2.0,12.0,89,0.01,,,0.15,0.0,meteohub,2013-03-05 04:52:00,
2013-03-04 22:57:00,22.3,19.6,30.03,East,93,0.0,12.0,89,0.01,,,0.15,0.0,meteohub,2013-03-05 04:57:00,
2013-03-04 23:00:00,22.3,19.6,30.03,East,96,0.0,12.0,89,0.01,,,0.15,0.0,meteohub,2013-03-05 05:00:00,
2013-03-04 23:05:00,22.3,19.6,30.03,East,86,0.0,7.0,89,0.02,,,0.16,0.0,meteohub,2013-03-05 05:05:00,
2013-03-04 23:10:00,22.3,19.6,30.03,ENE,76,0.0,7.0,89,0.02,,,0.16,0.0,meteohub,2013-03-05 05:10:00,
2013-03-04 23:16:00,22.3,19.6,30.03,ESE,122,0.0,7.0,89,0.02,,,0.16,0.0,meteohub,2013-03-05 05:16:00,
2013-03-04 23:21:00,22.3,19.6,30.03,ENE,71,7.0,7.0,89,0.02,,,0.16,0.0,meteohub,2013-03-05 05:21:00,
2013-03-04 23:26:00,22.3,19.6,30.02,East,90,5.0,7.0,89,0.02,,,0.16,0.0,meteohub,2013-03-05 05:26:00,
2013-03-04 23:31:00,22.3,19.6,30.02,East,97,0.0,12.0,89,0.02,,,0.16,0.0,meteohub,2013-03-05 05:31:00,
2013-03-04 23:36:00,22.3,19.6,30.02,ESE,117,2.0,20.0,89,0.01,,,0.16,0.0,meteohub,2013-03-05 05:36:00,
2013-03-04 23:41:00,22.3,19.6,30.02,ESE,109,0.0,20.0,89,0.01,,,0.16,0.0,meteohub,2013-03-05 05:41:00,
2013-03-04 23:46:00,22.3,19.6,30.02,ENE,69,0.0,20.0,89,0.01,,,0.16,0.0,meteohub,2013-03-05 05:46:00,
2013-03-04 23:51:00,22.5,19.8,30.01,ESE,105,5.0,15.0,89,0.01,,,0.16,0.0,meteohub,2013-03-05 05:51:00,
2013-03-04 23:56:00,22.5,19.8,30.01,East,87,0.0,15.0,89,0.01,,,0.16,0.0,meteohub,2013-03-05 05:56:00,